PIA786 EGLL-OPIS

Flight info

Callsign PIA786
Flight time N/A
Altitude 33000
Route BPK Q295 BRAIN P44 RATLO M197 REDFA L620 SUVOX Z718 OSNAD L980 SUBIX N858 GRUDA L29 SUWGI L32 SOTET/K0893F330 L32 GRD L979 ASKIL L736 LODKU M56 BEKAS L163 INKUM L162 ODIVA M161 AMDAR/N0492F330 A454 TAPIS L509 HANGU J139 KALMI
Aircraft B772/H-SDE2E3FGHIJ5LORVWXY/LB1D1

Departure

Time N/A
Airport London Heathrow Airport (EGLL)

Arrival

Time 2026-05-01 15:06
Airport Islamabad International Airport (OPIS)
Time Latitude Longitude Altitude Speed Heading
2026-05-01 08:21 51.97846 7.18381 35393 ft 476 kts 77°
2026-05-01 08:22 51.99459 7.26930 35400 ft 474 kts 69°
2026-05-01 08:22 52.01641 7.37059 35397 ft 475 kts 69°
2026-05-01 08:23 52.03769 7.47193 35399 ft 476 kts 70°
2026-05-01 08:23 52.05860 7.57429 35398 ft 477 kts 70°
2026-05-01 08:24 52.07927 7.67662 35406 ft 476 kts 70°
2026-05-01 08:24 52.09984 7.77894 35400 ft 476 kts 70°
2026-05-01 08:25 52.12037 7.88147 35403 ft 476 kts 70°
2026-05-01 08:25 52.14093 7.98405 35405 ft 475 kts 70°
2026-05-01 08:26 52.16061 8.08344 35403 ft 475 kts 71°
2026-05-01 08:26 52.18075 8.18595 35406 ft 475 kts 71°
2026-05-01 08:27 52.19864 8.28998 35409 ft 476 kts 78°
2026-05-01 08:27 52.20470 8.39727 35401 ft 478 kts 86°
2026-05-01 08:28 52.20793 8.50576 35407 ft 478 kts 85°
2026-05-01 08:28 52.21184 8.61328 35416 ft 478 kts 85°
2026-05-01 08:29 52.21578 8.72177 35422 ft 478 kts 85°
2026-05-01 08:29 52.21950 8.82957 35424 ft 478 kts 85°
2026-05-01 08:30 52.22314 8.93809 35425 ft 478 kts 85°
2026-05-01 08:30 52.22667 9.04631 35427 ft 478 kts 85°
2026-05-01 08:31 52.23027 9.15479 35431 ft 478 kts 85°
2026-05-01 08:31 52.23379 9.26326 35430 ft 478 kts 85°
2026-05-01 08:32 52.23705 9.37111 35425 ft 479 kts 86°
2026-05-01 08:32 52.24016 9.47995 35425 ft 478 kts 86°
2026-05-01 08:33 52.24320 9.58846 35431 ft 478 kts 86°
2026-05-01 08:33 52.24615 9.69697 35432 ft 478 kts 86°
2026-05-01 08:34 52.24900 9.80487 35428 ft 478 kts 86°
2026-05-01 08:34 52.25397 9.91291 35432 ft 477 kts 79°
2026-05-01 08:35 52.26727 10.01851 35425 ft 476 kts 77°
2026-05-01 08:35 52.28114 10.12454 35439 ft 476 kts 77°
2026-05-01 08:36 52.29444 10.22986 35445 ft 476 kts 77°
2026-05-01 08:36 52.30753 10.33598 35446 ft 476 kts 78°
2026-05-01 08:37 52.32055 10.44246 35460 ft 476 kts 78°
2026-05-01 08:37 52.33348 10.54886 35457 ft 476 kts 78°
2026-05-01 08:38 52.34621 10.65441 35455 ft 476 kts 78°
2026-05-01 08:38 52.35893 10.76067 35451 ft 475 kts 78°
2026-05-01 08:39 52.36579 10.86825 35449 ft 475 kts 87°
2026-05-01 08:39 52.36792 10.97638 35438 ft 475 kts 87°
2026-05-01 08:40 52.37105 11.13843 35436 ft 474 kts 87°
2026-05-01 08:40 52.37334 11.24590 35436 ft 474 kts 87°
2026-05-01 08:41 52.37560 11.35369 35428 ft 473 kts 87°
2026-05-01 08:41 52.37776 11.46147 35434 ft 473 kts 87°
2026-05-01 08:42 52.37981 11.56928 35435 ft 472 kts 87°
2026-05-01 08:42 52.38174 11.67665 35436 ft 472 kts 87°
2026-05-01 08:43 52.38359 11.78418 35435 ft 472 kts 87°
2026-05-01 08:43 52.38533 11.89183 35437 ft 472 kts 87°
2026-05-01 08:44 52.38697 11.99865 35433 ft 472 kts 87°
2026-05-01 08:44 52.38853 12.10646 35430 ft 472 kts 87°
2026-05-01 08:45 52.38996 12.21348 35435 ft 472 kts 87°
2026-05-01 08:45 52.39132 12.32101 35435 ft 472 kts 87°
2026-05-01 08:46 52.39258 12.42878 35430 ft 472 kts 87°
2026-05-01 08:46 52.39374 12.53554 35430 ft 472 kts 87°
2026-05-01 08:47 52.39479 12.64314 35431 ft 472 kts 87°
2026-05-01 08:47 52.39576 12.75080 35426 ft 472 kts 87°
2026-05-01 08:48 52.39663 12.85831 35419 ft 472 kts 87°
2026-05-01 08:48 52.39740 12.96557 35425 ft 471 kts 87°
2026-05-01 08:49 52.39807 13.07229 35427 ft 471 kts 87°
2026-05-01 08:49 52.39864 13.17963 35421 ft 470 kts 87°
2026-05-01 08:50 52.39912 13.28674 35428 ft 469 kts 87°
2026-05-01 08:50 52.39950 13.39303 35432 ft 468 kts 88°
2026-05-01 08:51 52.39978 13.49953 35418 ft 468 kts 88°
2026-05-01 08:51 52.39999 13.60611 35435 ft 467 kts 88°
2026-05-01 08:52 52.40011 13.71259 35422 ft 466 kts 88°
2026-05-01 08:52 52.40019 13.81887 35436 ft 466 kts 88°
2026-05-01 08:53 52.40017 13.92423 35424 ft 466 kts 88°
2026-05-01 08:53 52.40008 14.03056 35413 ft 465 kts 88°
2026-05-01 08:54 52.39810 14.13657 35414 ft 466 kts 91°
2026-05-01 08:54 52.39380 14.24193 35415 ft 466 kts 91°
2026-05-01 08:55 52.38950 14.34790 35428 ft 466 kts 91°
2026-05-01 08:55 52.38536 14.45343 35428 ft 466 kts 91°
2026-05-01 08:56 52.38522 14.55895 35419 ft 460 kts 78°
2026-05-01 08:56 52.40448 14.65805 35416 ft 455 kts 60°
2026-05-01 08:57 52.43630 14.74683 35418 ft 455 kts 57°
2026-05-01 08:57 52.46890 14.83583 35423 ft 456 kts 58°
2026-05-01 08:58 52.50118 14.92572 35420 ft 457 kts 58°
2026-05-01 08:58 52.53322 15.01617 35419 ft 458 kts 58°
2026-05-01 08:59 52.56515 15.10683 35418 ft 458 kts 58°
2026-05-01 08:59 52.59703 15.19765 35410 ft 458 kts 59°
2026-05-01 09:00 52.62863 15.28794 35409 ft 457 kts 59°
2026-05-01 09:00 52.66036 15.37890 35411 ft 457 kts 59°
2026-05-01 09:01 52.69197 15.46987 35411 ft 456 kts 59°
2026-05-01 09:01 52.71807 15.54525 35403 ft 455 kts 59°
2026-05-01 09:02 52.74945 15.63614 35408 ft 455 kts 59°
2026-05-01 09:02 52.78072 15.72704 35411 ft 454 kts 59°
2026-05-01 09:03 52.81168 15.81748 35406 ft 454 kts 60°
2026-05-01 09:03 52.83803 15.91264 35411 ft 455 kts 65°
2026-05-01 09:04 52.86211 16.00903 35408 ft 455 kts 65°
2026-05-01 09:04 52.88638 16.10606 35401 ft 455 kts 65°
2026-05-01 09:05 52.91058 16.20236 35400 ft 455 kts 65°
2026-05-01 09:05 52.93494 16.29943 35400 ft 455 kts 65°
2026-05-01 09:06 52.95924 16.39666 35399 ft 455 kts 65°
2026-05-01 09:06 52.98325 16.49321 35395 ft 455 kts 65°
2026-05-01 09:07 53.00743 16.59093 35393 ft 454 kts 65°
2026-05-01 09:07 53.03125 16.68759 35390 ft 454 kts 65°
2026-05-01 09:08 53.05515 16.78501 35395 ft 454 kts 65°
2026-05-01 09:08 53.07897 16.88249 35388 ft 453 kts 65°
2026-05-01 09:09 53.10250 16.97921 35386 ft 453 kts 65°
2026-05-01 09:09 53.12608 17.07660 35390 ft 452 kts 65°
2026-05-01 09:10 53.14951 17.17385 35377 ft 451 kts 65°
2026-05-01 09:10 53.17270 17.27051 35376 ft 451 kts 65°
2026-05-01 09:11 53.19596 17.36789 35379 ft 451 kts 65°
2026-05-01 09:11 53.21895 17.46459 35382 ft 450 kts 65°
2026-05-01 09:12 53.24200 17.56195 35381 ft 450 kts 65°
2026-05-01 09:12 53.26495 17.65934 35379 ft 450 kts 65°
2026-05-01 09:13 53.28782 17.75681 35376 ft 450 kts 65°
2026-05-01 09:13 53.31063 17.85448 35377 ft 450 kts 66°
2026-05-01 09:14 53.33324 17.95175 35380 ft 450 kts 66°
2026-05-01 09:14 53.35592 18.04976 35379 ft 450 kts 66°
2026-05-01 09:15 53.37845 18.14751 35377 ft 450 kts 66°
2026-05-01 09:15 53.40071 18.24502 35375 ft 450 kts 66°
2026-05-01 09:16 53.42296 18.34324 35377 ft 449 kts 66°
2026-05-01 09:17 53.45606 18.49005 35374 ft 449 kts 66°
2026-05-01 09:17 53.48910 18.63757 35371 ft 449 kts 66°
2026-05-01 09:18 53.52149 18.78466 35379 ft 450 kts 69°
2026-05-01 09:19 53.54516 18.93825 35378 ft 452 kts 72°
2026-05-01 09:20 53.56787 19.09231 35378 ft 452 kts 72°
2026-05-01 09:21 53.59825 19.29745 35365 ft 452 kts 72°
2026-05-01 09:21 53.62093 19.45215 35367 ft 452 kts 72°
2026-05-01 09:22 53.65063 19.65728 35363 ft 451 kts 72°
2026-05-01 09:23 53.67278 19.81195 35359 ft 451 kts 72°
2026-05-01 09:24 53.69468 19.96629 35364 ft 450 kts 72°
2026-05-01 09:25 53.72357 20.17147 35359 ft 450 kts 72°
2026-05-01 09:26 53.74497 20.32534 35351 ft 449 kts 72°
2026-05-01 09:26 53.76623 20.47963 35352 ft 448 kts 72°
2026-05-01 09:27 53.78720 20.63393 35357 ft 448 kts 72°
2026-05-01 09:28 53.80096 20.73605 35352 ft 448 kts 72°
2026-05-01 09:28 53.81473 20.83892 35349 ft 447 kts 72°
2026-05-01 09:29 53.83527 20.99367 35646 ft 450 kts 72°
2026-05-01 09:29 53.84206 21.04523 35954 ft 448 kts 72°
2026-05-01 09:30 53.85546 21.14741 36514 ft 447 kts 72°
2026-05-01 09:30 53.86217 21.19895 36745 ft 447 kts 73°
2026-05-01 09:30 53.87551 21.30209 37223 ft 447 kts 73°
2026-05-01 09:31 53.88875 21.40508 37346 ft 450 kts 73°
2026-05-01 09:32 53.90846 21.56015 37344 ft 445 kts 73°
2026-05-01 09:32 53.92773 21.71326 37340 ft 442 kts 73°
2026-05-01 09:33 53.94047 21.81533 37343 ft 441 kts 73°
2026-05-01 09:34 53.95942 21.96859 37345 ft 442 kts 73°
2026-05-01 09:34 53.97818 22.12196 37343 ft 444 kts 73°
2026-05-01 09:35 53.99687 22.27672 37338 ft 446 kts 73°
2026-05-01 09:36 54.00927 22.38036 37335 ft 447 kts 73°
2026-05-01 09:36 54.02152 22.48355 37332 ft 447 kts 73°
2026-05-01 09:37 54.03376 22.58745 37331 ft 447 kts 73°
2026-05-01 09:37 54.05194 22.74322 37329 ft 447 kts 73°
2026-05-01 09:38 54.06210 22.84729 37306 ft 452 kts 84°
2026-05-01 09:38 54.05907 22.90109 37334 ft 462 kts 95°
2026-05-01 09:38 54.05000 22.95405 37328 ft 471 kts 106°
2026-05-01 09:39 54.01656 23.05192 37292 ft 481 kts 116°
2026-05-01 09:39 53.98022 23.14694 37333 ft 481 kts 116°
2026-05-01 09:40 53.92665 23.29148 37326 ft 482 kts 115°
2026-05-01 09:41 53.89103 23.38842 37330 ft 483 kts 115°
2026-05-01 09:41 53.84149 23.53532 37318 ft 471 kts 102°
2026-05-01 09:42 53.82766 23.64172 37324 ft 455 kts 86°
2026-05-01 09:43 53.82567 23.83705 37324 ft 453 kts 84°
2026-05-01 09:43 53.82407 23.96107 37325 ft 453 kts 85°
2026-05-01 09:44 53.82172 24.10329 37321 ft 453 kts 85°
2026-05-01 09:45 53.81982 24.20997 37328 ft 453 kts 85°
2026-05-01 09:45 53.81682 24.36989 37316 ft 452 kts 85°
2026-05-01 09:46 53.81473 24.47569 37311 ft 452 kts 85°
2026-05-01 09:46 53.81253 24.58203 37311 ft 452 kts 85°
2026-05-01 09:47 53.81024 24.68841 37303 ft 451 kts 85°
2026-05-01 09:47 53.80786 24.79468 37303 ft 451 kts 85°
2026-05-01 09:48 53.80541 24.90011 37302 ft 451 kts 85°
2026-05-01 09:48 53.80286 25.00634 37299 ft 451 kts 85°
2026-05-01 09:49 53.80636 25.11083 37300 ft 442 kts 75°
2026-05-01 09:49 53.81919 25.21188 37291 ft 437 kts 70°
2026-05-01 09:50 53.83368 25.31119 37300 ft 437 kts 70°
2026-05-01 09:50 53.84809 25.41151 37297 ft 438 kts 70°
2026-05-01 09:51 53.86225 25.51195 37293 ft 438 kts 71°
2026-05-01 09:51 53.87627 25.61250 37292 ft 439 kts 71°
2026-05-01 09:52 53.89025 25.71343 37290 ft 439 kts 71°
2026-05-01 09:52 53.90406 25.81377 37291 ft 439 kts 71°
2026-05-01 09:53 53.91787 25.91485 37288 ft 439 kts 71°
2026-05-01 09:53 53.93160 26.01595 37282 ft 439 kts 71°
2026-05-01 09:54 53.94520 26.11675 37285 ft 439 kts 71°
2026-05-01 09:54 53.95877 26.21807 37283 ft 440 kts 71°
2026-05-01 09:55 53.97224 26.31932 37285 ft 439 kts 71°
2026-05-01 09:55 53.98565 26.42086 37275 ft 440 kts 71°
2026-05-01 09:56 53.99898 26.52254 37281 ft 440 kts 71°
2026-05-01 09:56 54.01214 26.62353 37279 ft 440 kts 71°
2026-05-01 09:57 54.02531 26.72528 37276 ft 440 kts 71°
2026-05-01 09:57 54.03841 26.82721 37282 ft 441 kts 71°
2026-05-01 09:58 54.05140 26.92856 37283 ft 441 kts 72°
2026-05-01 09:58 54.06443 27.03073 37282 ft 441 kts 72°
2026-05-01 09:59 54.07737 27.13310 37282 ft 442 kts 72°
2026-05-01 09:59 54.09026 27.23571 37265 ft 442 kts 72°
2026-05-01 10:00 54.10296 27.33753 37271 ft 442 kts 72°
2026-05-01 10:00 54.11562 27.44051 37271 ft 442 kts 72°
2026-05-01 10:01 54.12809 27.54317 37280 ft 442 kts 72°
2026-05-01 10:01 54.14042 27.64517 37617 ft 442 kts 75°
2026-05-01 10:02 54.14662 27.69677 37259 ft 442 kts 72°
2026-05-01 10:02 54.15276 27.74811 37267 ft 442 kts 72°
2026-05-01 10:02 54.16497 27.85076 37285 ft 440 kts 72°
2026-05-01 10:03 54.17702 27.95276 37280 ft 440 kts 72°
2026-05-01 10:03 54.18904 28.05526 37278 ft 440 kts 73°
2026-05-01 10:04 54.20091 28.15724 37271 ft 440 kts 73°
2026-05-01 10:04 54.21275 28.25994 37281 ft 441 kts 73°
2026-05-01 10:05 54.22455 28.36296 37262 ft 442 kts 73°
2026-05-01 10:05 54.23628 28.46627 37274 ft 443 kts 73°
2026-05-01 10:06 54.24796 28.56993 37263 ft 444 kts 73°
2026-05-01 10:06 54.25947 28.67303 37267 ft 445 kts 73°
2026-05-01 10:07 54.27103 28.77737 37260 ft 446 kts 73°
2026-05-01 10:07 54.28252 28.88194 37264 ft 447 kts 73°
2026-05-01 10:08 54.29954 29.03833 37265 ft 448 kts 74°
2026-05-01 10:09 54.31080 29.14308 37269 ft 449 kts 74°
2026-05-01 10:09 54.32206 29.24862 37259 ft 449 kts 74°
2026-05-01 10:10 54.33322 29.35396 37261 ft 449 kts 74°
2026-05-01 10:10 54.34989 29.51158 37263 ft 449 kts 74°
2026-05-01 10:11 54.36091 29.61659 37261 ft 449 kts 74°
2026-05-01 10:11 54.37181 29.72232 37266 ft 450 kts 75°
2026-05-01 10:12 54.38077 29.81024 37264 ft 450 kts 75°
2026-05-01 10:13 54.39860 29.98653 37268 ft 451 kts 75°
2026-05-01 10:13 54.40920 30.09277 37267 ft 451 kts 75°
2026-05-01 10:14 54.42497 30.25231 37268 ft 451 kts 75°
2026-05-01 10:14 54.43525 30.35823 37267 ft 452 kts 75°
2026-05-01 10:15 54.44546 30.46488 37266 ft 452 kts 75°
2026-05-01 10:15 54.45560 30.57171 37277 ft 452 kts 75°
2026-05-01 10:16 54.46566 30.67862 37276 ft 453 kts 76°
2026-05-01 10:17 54.48054 30.83865 37267 ft 454 kts 76°
2026-05-01 10:17 54.49532 31.00002 37266 ft 455 kts 76°
2026-05-01 10:18 54.50968 31.16116 37263 ft 456 kts 76°
2026-05-01 10:19 54.51883 31.26953 37263 ft 457 kts 77°
2026-05-01 10:19 54.52789 31.37814 37256 ft 458 kts 77°
2026-05-01 10:20 54.54135 31.54068 37257 ft 459 kts 77°
2026-05-01 10:20 54.55027 31.64988 37260 ft 460 kts 77°
2026-05-01 10:21 54.56350 31.81400 37258 ft 461 kts 77°
2026-05-01 10:22 54.57648 31.97789 37253 ft 462 kts 78°
2026-05-01 10:23 54.58935 32.14333 37249 ft 464 kts 78°
2026-05-01 10:23 54.60195 32.30837 37251 ft 465 kts 78°
2026-05-01 10:24 54.61852 32.53016 37245 ft 466 kts 78°
2026-05-01 10:25 54.63469 32.75223 37254 ft 468 kts 79°
2026-05-01 10:26 54.64261 32.86312 37239 ft 468 kts 79°
2026-05-01 10:27 54.65829 33.08728 37242 ft 470 kts 79°
2026-05-01 10:28 54.66976 33.25505 37245 ft 471 kts 79°
2026-05-01 10:28 54.68102 33.42335 37240 ft 472 kts 80°
2026-05-01 10:29 54.69093 33.57452 37237 ft 472 kts 80°
2026-05-01 10:30 54.70538 33.80006 37233 ft 473 kts 80°
2026-05-01 10:31 54.71387 34.02773 37236 ft 476 kts 84°
2026-05-01 10:32 54.71770 34.20000 37236 ft 477 kts 84°
2026-05-01 10:33 54.72299 34.42948 37244 ft 478 kts 84°
2026-05-01 10:33 54.72541 34.54213 37184 ft 465 kts 84°
2026-05-01 10:34 54.72659 34.59803 37239 ft 465 kts 84°
2026-05-01 10:34 54.72893 34.71091 37237 ft 470 kts 84°
2026-05-01 10:35 54.73221 34.88147 37232 ft 474 kts 84°
2026-05-01 10:35 54.73425 34.99531 37230 ft 475 kts 84°
2026-05-01 10:36 54.73715 35.16687 37219 ft 474 kts 84°
2026-05-01 10:37 54.73857 35.28040 37222 ft 474 kts 85°
2026-05-01 10:37 54.73857 35.45135 37218 ft 472 kts 86°
2026-05-01 10:38 54.73848 35.56516 37218 ft 472 kts 86°
2026-05-01 10:38 54.73842 35.67874 37210 ft 471 kts 86°
2026-05-01 10:39 54.73828 35.79174 37213 ft 471 kts 86°
2026-05-01 10:39 54.73803 35.90557 37216 ft 472 kts 86°
2026-05-01 10:40 54.73767 36.01887 37214 ft 473 kts 87°
2026-05-01 10:40 54.73722 36.13309 37214 ft 474 kts 87°
2026-05-01 10:41 54.73657 36.24765 37214 ft 476 kts 87°
2026-05-01 10:42 54.73516 36.41906 37209 ft 477 kts 88°
2026-05-01 10:42 54.73413 36.53422 37208 ft 478 kts 88°
2026-05-01 10:43 54.73300 36.64942 37204 ft 479 kts 88°
2026-05-01 10:43 54.73204 36.76477 37209 ft 479 kts 88°
2026-05-01 10:44 54.73118 36.87958 37206 ft 480 kts 88°
2026-05-01 10:44 54.73017 36.99532 37210 ft 480 kts 88°
2026-05-01 10:45 54.72902 37.11116 37214 ft 481 kts 88°
2026-05-01 10:45 54.72777 37.22641 37219 ft 481 kts 88°
2026-05-01 10:46 54.72330 37.34212 37216 ft 485 kts 98°
2026-05-01 10:46 54.70465 37.45419 37217 ft 490 kts 110°
2026-05-01 10:47 54.67545 37.56095 37222 ft 492 kts 113°
2026-05-01 10:47 54.64529 37.66734 37223 ft 493 kts 113°
2026-05-01 10:48 54.61548 37.77425 37212 ft 493 kts 113°
2026-05-01 10:48 54.58585 37.88116 37215 ft 494 kts 113°
2026-05-01 10:49 54.55630 37.98731 37221 ft 494 kts 113°
2026-05-01 10:49 54.52638 38.09421 37219 ft 495 kts 113°
2026-05-01 10:50 54.49870 38.20192 37229 ft 492 kts 107°
2026-05-01 10:50 54.48136 38.31572 37221 ft 490 kts 100°
2026-05-01 10:51 54.46708 38.43038 37223 ft 490 kts 100°
2026-05-01 10:51 54.45242 38.54439 37217 ft 491 kts 101°
2026-05-01 10:52 54.43727 38.65889 37220 ft 491 kts 101°
2026-05-01 10:52 54.42194 38.77361 37218 ft 491 kts 101°
2026-05-01 10:53 54.40665 38.88741 37219 ft 492 kts 101°
2026-05-01 10:53 54.39102 39.00187 37221 ft 492 kts 103°
2026-05-01 10:54 54.36826 39.11277 37215 ft 493 kts 111°
2026-05-01 10:54 54.34151 39.22054 37219 ft 494 kts 111°
2026-05-01 10:55 54.31516 39.32943 37218 ft 494 kts 111°
2026-05-01 10:55 54.28875 39.43847 37221 ft 495 kts 111°
2026-05-01 10:56 54.26221 39.54743 37219 ft 496 kts 111°
2026-05-01 10:56 54.23551 39.65642 37219 ft 497 kts 111°
2026-05-01 10:57 54.20872 39.76525 37218 ft 497 kts 111°
2026-05-01 10:57 54.18193 39.87355 37217 ft 497 kts 112°
2026-05-01 10:58 54.15493 39.98224 37213 ft 497 kts 112°
2026-05-01 10:58 54.12773 40.09116 37209 ft 498 kts 112°
2026-05-01 10:59 54.10466 40.20148 37217 ft 496 kts 105°
2026-05-01 10:59 54.08546 40.31453 37211 ft 496 kts 105°
2026-05-01 11:00 54.06612 40.42746 37207 ft 497 kts 105°
2026-05-01 11:00 54.04644 40.53969 37206 ft 497 kts 106°
2026-05-01 11:01 54.02640 40.65258 37209 ft 497 kts 106°
2026-05-01 11:01 54.00641 40.76460 37206 ft 497 kts 106°
2026-05-01 11:02 53.98616 40.87748 37204 ft 498 kts 107°
2026-05-01 11:02 53.96585 40.99019 37205 ft 498 kts 107°
2026-05-01 11:03 53.94605 41.10245 37206 ft 500 kts 105°
2026-05-01 11:03 53.92766 41.21665 37205 ft 501 kts 105°
2026-05-01 11:04 53.90926 41.33102 37200 ft 502 kts 105°
2026-05-01 11:04 53.89055 41.44474 37198 ft 504 kts 105°
2026-05-01 11:05 53.87146 41.55939 37190 ft 505 kts 106°
2026-05-01 11:05 53.85228 41.67406 37187 ft 505 kts 106°
2026-05-01 11:06 53.83298 41.78851 37179 ft 506 kts 106°
2026-05-01 11:06 53.81337 41.90263 37179 ft 506 kts 107°
2026-05-01 11:07 53.78371 42.07353 37173 ft 506 kts 107°
2026-05-01 11:07 53.76377 42.18775 37174 ft 505 kts 107°
2026-05-01 11:08 53.74377 42.30169 37175 ft 504 kts 107°
2026-05-01 11:09 53.71375 42.47133 37174 ft 503 kts 107°
2026-05-01 11:09 53.69356 42.58462 37168 ft 503 kts 107°
2026-05-01 11:10 53.66393 42.75464 37170 ft 502 kts 105°
2026-05-01 11:10 53.64644 42.86824 37162 ft 503 kts 105°
2026-05-01 11:11 53.62886 42.98242 37156 ft 503 kts 105°
2026-05-01 11:11 53.61092 43.09590 37157 ft 503 kts 106°
2026-05-01 11:12 53.59260 43.21000 37154 ft 503 kts 106°
2026-05-01 11:12 53.57430 43.32319 37145 ft 504 kts 106°
2026-05-01 11:13 53.55577 43.43717 37142 ft 504 kts 106°
2026-05-01 11:13 53.53723 43.55051 37137 ft 505 kts 106°
2026-05-01 11:14 53.51851 43.66424 37133 ft 505 kts 106°
2026-05-01 11:14 53.50283 43.75893 37131 ft 505 kts 107°
2026-05-01 11:15 53.48074 43.89151 37127 ft 506 kts 107°
2026-05-01 11:15 53.46477 43.98624 37127 ft 506 kts 107°
2026-05-01 11:16 53.44547 44.09994 37120 ft 507 kts 107°
2026-05-01 11:16 53.42604 44.21377 37120 ft 507 kts 107°
2026-05-01 11:17 53.40665 44.32681 37116 ft 507 kts 107°
2026-05-01 11:17 53.38700 44.44061 37117 ft 507 kts 107°
2026-05-01 11:18 53.36725 44.55435 37112 ft 508 kts 107°
2026-05-01 11:18 53.34765 44.66725 37111 ft 508 kts 107°
2026-05-01 11:19 53.32791 44.78095 37110 ft 508 kts 108°
2026-05-01 11:19 53.30803 44.89467 37102 ft 509 kts 108°
2026-05-01 11:20 53.28805 45.00822 37108 ft 509 kts 108°
2026-05-01 11:20 53.26669 45.12041 37109 ft 508 kts 111°
2026-05-01 11:21 53.24237 45.23148 37101 ft 508 kts 112°
2026-05-01 11:21 53.21792 45.34161 37099 ft 509 kts 112°
2026-05-01 11:22 53.19348 45.45269 37094 ft 509 kts 112°
2026-05-01 11:22 53.16904 45.56378 37089 ft 510 kts 112°
2026-05-01 11:23 53.14447 45.67481 37097 ft 510 kts 112°
2026-05-01 11:23 53.11992 45.78514 37096 ft 511 kts 112°
2026-05-01 11:24 53.09512 45.89628 37084 ft 511 kts 112°
2026-05-01 11:25 53.05831 46.06213 37087 ft 511 kts 112°
2026-05-01 11:25 53.02114 46.22825 37081 ft 511 kts 112°
2026-05-01 11:26 52.98386 46.39348 37077 ft 511 kts 112°
2026-05-01 11:27 52.95878 46.50378 37073 ft 511 kts 113°
2026-05-01 11:27 52.93338 46.61412 37084 ft 511 kts 113°
2026-05-01 11:28 52.90791 46.72416 37088 ft 511 kts 113°
2026-05-01 11:28 52.88239 46.83403 37081 ft 512 kts 113°
2026-05-01 11:29 52.84393 46.99867 37078 ft 512 kts 114°
2026-05-01 11:30 52.80558 47.16397 37065 ft 513 kts 112°
2026-05-01 11:30 52.78235 47.27512 37074 ft 514 kts 111°
2026-05-01 11:31 52.75905 47.38687 37071 ft 514 kts 111°
2026-05-01 11:31 52.73518 47.49856 37066 ft 514 kts 112°
2026-05-01 11:32 52.71133 47.60924 37059 ft 515 kts 112°
2026-05-01 11:32 52.68716 47.72065 37060 ft 515 kts 112°
2026-05-01 11:33 52.66310 47.83106 37054 ft 515 kts 112°
2026-05-01 11:33 52.63873 47.94238 37060 ft 515 kts 112°
2026-05-01 11:34 52.61442 48.05291 37059 ft 515 kts 112°
2026-05-01 11:34 52.58987 48.16358 37054 ft 515 kts 112°
2026-05-01 11:35 52.56521 48.27373 37055 ft 515 kts 113°
2026-05-01 11:35 52.54031 48.38440 37054 ft 515 kts 113°
2026-05-01 11:36 52.51537 48.49479 37049 ft 515 kts 113°
2026-05-01 11:36 52.49031 48.60520 37053 ft 515 kts 113°
2026-05-01 11:37 52.46515 48.71545 37054 ft 515 kts 113°
2026-05-01 11:37 52.44001 48.82503 37050 ft 515 kts 113°
2026-05-01 11:38 52.41463 48.93511 37049 ft 516 kts 114°
2026-05-01 11:38 52.38914 49.04516 37049 ft 516 kts 114°
2026-05-01 11:39 52.36372 49.15434 37049 ft 516 kts 114°
2026-05-01 11:39 52.33803 49.26416 37046 ft 517 kts 114°
2026-05-01 11:40 52.31223 49.37412 37042 ft 517 kts 114°
2026-05-01 11:40 52.28634 49.48382 37040 ft 517 kts 114°
2026-05-01 11:41 52.26043 49.59256 37040 ft 517 kts 114°
2026-05-01 11:41 52.23422 49.70204 37035 ft 518 kts 114°
2026-05-01 11:42 52.20787 49.81170 37034 ft 518 kts 114°
2026-05-01 11:42 52.18164 49.92031 37035 ft 518 kts 115°
2026-05-01 11:43 52.15509 50.02973 37033 ft 518 kts 115°
2026-05-01 11:43 52.12843 50.13905 37034 ft 519 kts 115°
2026-05-01 11:44 52.08835 50.30231 37035 ft 519 kts 115°
2026-05-01 11:44 52.06157 50.41079 37030 ft 520 kts 115°
2026-05-01 11:45 52.03454 50.51972 37032 ft 520 kts 115°
2026-05-01 11:45 52.00731 50.62890 37031 ft 520 kts 115°
2026-05-01 11:46 51.98020 50.73713 37031 ft 520 kts 115°
2026-05-01 11:46 51.95282 50.84596 37020 ft 520 kts 116°
2026-05-01 11:47 51.92500 50.95434 37036 ft 520 kts 116°
2026-05-01 11:47 51.89657 51.06228 37033 ft 521 kts 117°
2026-05-01 11:48 51.86806 51.17013 37029 ft 521 kts 117°
2026-05-01 11:48 51.83955 51.27790 37031 ft 521 kts 117°
2026-05-01 11:49 51.81113 51.38498 37029 ft 521 kts 117°
2026-05-01 11:49 51.78243 51.49261 37037 ft 521 kts 117°
2026-05-01 11:50 51.75361 51.60014 37037 ft 521 kts 117°
2026-05-01 11:50 51.72487 51.70688 37039 ft 521 kts 117°
2026-05-01 11:51 51.69584 51.81428 37039 ft 521 kts 117°
2026-05-01 11:51 51.66198 51.91702 37044 ft 515 kts 127°
2026-05-01 11:52 51.61918 52.00788 37039 ft 511 kts 133°
2026-05-01 11:52 51.57461 52.09734 37046 ft 512 kts 133°
2026-05-01 11:53 51.53022 52.18704 37043 ft 513 kts 133°
2026-05-01 11:53 51.48587 52.27714 37047 ft 513 kts 133°
2026-05-01 11:54 51.44160 52.36696 37049 ft 514 kts 133°
2026-05-01 11:54 51.39708 52.45693 37045 ft 515 kts 133°
2026-05-01 11:55 51.35261 52.54642 37061 ft 515 kts 133°
2026-05-01 11:55 51.30780 52.63629 37052 ft 516 kts 133°
2026-05-01 11:56 51.26321 52.72538 37052 ft 516 kts 133°
2026-05-01 11:56 51.21825 52.81492 37049 ft 516 kts 134°
2026-05-01 11:57 51.18078 52.88929 37050 ft 516 kts 134°
2026-05-01 11:57 51.12841 52.99289 37047 ft 516 kts 134°
2026-05-01 11:58 51.08328 53.08184 37050 ft 516 kts 134°
2026-05-01 11:59 51.01534 53.21515 37052 ft 516 kts 134°
2026-05-01 11:59 50.97032 53.30314 37051 ft 516 kts 134°
2026-05-01 12:00 50.90221 53.43565 37048 ft 517 kts 134°
2026-05-01 12:01 50.83377 53.56812 37059 ft 517 kts 134°
2026-05-01 12:01 50.78838 53.65562 37065 ft 517 kts 134°
2026-05-01 12:02 50.74267 53.74343 37059 ft 517 kts 135°
2026-05-01 12:02 50.70459 53.81636 37067 ft 517 kts 135°
2026-05-01 12:03 50.65871 53.90393 37066 ft 517 kts 135°
2026-05-01 12:03 50.61266 53.99157 37068 ft 518 kts 135°
2026-05-01 12:04 50.56683 54.07846 37061 ft 518 kts 135°
2026-05-01 12:04 50.52070 54.16566 37058 ft 518 kts 135°
2026-05-01 12:05 50.47450 54.25267 37059 ft 518 kts 135°
2026-05-01 12:05 50.40519 54.38270 37050 ft 517 kts 135°
2026-05-01 12:06 50.35922 54.46861 37062 ft 517 kts 135°
2026-05-01 12:06 50.31291 54.55486 37063 ft 516 kts 135°
2026-05-01 12:07 50.26754 54.64133 37065 ft 517 kts 134°
2026-05-01 12:07 50.22265 54.72938 37053 ft 517 kts 134°
2026-05-01 12:08 50.17768 54.81734 37057 ft 517 kts 134°
2026-05-01 12:08 50.13261 54.90471 37053 ft 516 kts 134°
2026-05-01 12:09 50.08768 54.99129 37051 ft 516 kts 134°
2026-05-01 12:09 50.04245 55.07813 37058 ft 515 kts 134°
2026-05-01 12:10 49.97484 55.20743 37057 ft 515 kts 134°
2026-05-01 12:11 49.90683 55.33690 37053 ft 515 kts 134°
2026-05-01 12:11 49.86139 55.42305 37054 ft 515 kts 135°
2026-05-01 12:12 49.81627 55.50831 37063 ft 515 kts 135°
2026-05-01 12:12 49.77082 55.59390 37061 ft 514 kts 135°
2026-05-01 12:13 49.72518 55.67958 37056 ft 514 kts 135°
2026-05-01 12:13 49.67979 55.76452 37054 ft 514 kts 135°
2026-05-01 12:14 49.63415 55.84964 37053 ft 514 kts 135°
2026-05-01 12:14 49.58841 55.93468 37054 ft 514 kts 135°
2026-05-01 12:15 49.54294 56.01894 37065 ft 514 kts 135°
2026-05-01 12:15 49.49716 56.10350 37056 ft 514 kts 135°
2026-05-01 12:16 49.45126 56.18802 37053 ft 514 kts 135°
2026-05-01 12:16 49.40528 56.27242 37060 ft 513 kts 135°
2026-05-01 12:17 49.35959 56.35600 37053 ft 513 kts 135°
2026-05-01 12:17 49.31357 56.43993 37059 ft 513 kts 135°
2026-05-01 12:18 49.26748 56.52371 37065 ft 513 kts 136°
2026-05-01 12:18 49.22160 56.60685 37058 ft 513 kts 136°
2026-05-01 12:19 49.17546 56.69021 37063 ft 513 kts 136°
2026-05-01 12:19 49.12953 56.77292 37062 ft 512 kts 136°
2026-05-01 12:20 49.08324 56.85602 37065 ft 512 kts 136°
2026-05-01 12:20 49.03723 56.93836 37065 ft 512 kts 136°
2026-05-01 12:21 48.99086 57.02108 37068 ft 512 kts 136°
2026-05-01 12:21 48.94448 57.10355 37068 ft 512 kts 136°
2026-05-01 12:22 48.89810 57.18578 37075 ft 512 kts 136°
2026-05-01 12:22 48.85157 57.26801 37072 ft 512 kts 136°
2026-05-01 12:23 48.80529 57.34958 37073 ft 512 kts 136°
2026-05-01 12:23 48.75876 57.43135 37067 ft 512 kts 136°
2026-05-01 12:24 48.71237 57.51258 37072 ft 511 kts 136°
2026-05-01 12:24 48.66579 57.59391 37068 ft 511 kts 136°
2026-05-01 12:25 48.59570 57.71593 37079 ft 511 kts 136°
2026-05-01 12:26 48.54929 57.79642 37076 ft 511 kts 136°
2026-05-01 12:26 48.47913 57.91767 37077 ft 510 kts 136°
2026-05-01 12:27 48.40914 58.03804 37091 ft 510 kts 136°
2026-05-01 12:28 48.33880 58.15847 37089 ft 510 kts 137°
2026-05-01 12:29 48.26859 58.27813 37082 ft 509 kts 137°
2026-05-01 12:29 48.19839 58.39726 37084 ft 509 kts 137°
2026-05-01 12:30 48.12804 58.51609 37082 ft 508 kts 137°
2026-05-01 12:31 48.08100 58.59525 37085 ft 508 kts 137°
2026-05-01 12:31 48.03388 58.67432 37091 ft 507 kts 137°
2026-05-01 12:32 47.98716 58.75248 37089 ft 507 kts 137°
2026-05-01 12:32 47.91658 58.87011 37089 ft 506 kts 137°
2026-05-01 12:33 47.86960 58.94815 37086 ft 505 kts 137°
2026-05-01 12:33 47.82285 59.02555 37090 ft 504 kts 137°
2026-05-01 12:34 47.77590 59.10308 37087 ft 504 kts 137°
2026-05-01 12:34 47.72891 59.18048 37085 ft 503 kts 137°
2026-05-01 12:35 47.68212 59.25724 37086 ft 503 kts 137°
2026-05-01 12:35 47.63511 59.33404 37087 ft 503 kts 137°
2026-05-01 12:36 47.58792 59.41096 37087 ft 502 kts 137°
2026-05-01 12:36 47.54109 59.48711 37106 ft 502 kts 138°
2026-05-01 12:37 47.49387 59.56367 37100 ft 502 kts 138°
2026-05-01 12:37 47.44697 59.63950 37094 ft 502 kts 138°
2026-05-01 12:38 47.39980 59.71555 37087 ft 502 kts 138°
2026-05-01 12:38 47.35250 59.79159 37089 ft 501 kts 138°
2026-05-01 12:39 47.30545 59.86703 37088 ft 501 kts 138°
2026-05-01 12:39 47.25809 59.94273 37087 ft 501 kts 138°
2026-05-01 12:40 47.21085 60.01803 37086 ft 500 kts 138°
2026-05-01 12:40 47.16388 60.09269 37085 ft 500 kts 138°
2026-05-01 12:41 47.11646 60.16784 37084 ft 499 kts 138°
2026-05-01 12:41 47.06942 60.24220 37089 ft 499 kts 138°
2026-05-01 12:42 47.02204 60.31688 37085 ft 499 kts 138°
2026-05-01 12:42 46.97471 60.39127 37089 ft 499 kts 139°
2026-05-01 12:43 46.92760 60.46512 37085 ft 498 kts 139°
2026-05-01 12:43 46.88014 60.53930 37086 ft 498 kts 139°
2026-05-01 12:44 46.83262 60.61338 37085 ft 499 kts 139°
2026-05-01 12:45 46.73784 60.76050 37072 ft 498 kts 139°
2026-05-01 12:45 46.69021 60.83413 37089 ft 498 kts 139°
2026-05-01 12:46 46.64290 60.90709 37086 ft 497 kts 139°
2026-05-01 12:46 46.59529 60.98028 37078 ft 497 kts 139°
2026-05-01 12:47 46.54759 61.05342 37087 ft 497 kts 139°
2026-05-01 12:47 46.50028 61.12577 37077 ft 496 kts 139°
2026-05-01 12:48 46.45257 61.19852 37084 ft 496 kts 139°
2026-05-01 12:48 46.40494 61.27096 37085 ft 496 kts 139°
2026-05-01 12:49 46.35730 61.34323 37082 ft 496 kts 139°
2026-05-01 12:49 46.30981 61.41507 37089 ft 496 kts 139°
2026-05-01 12:50 46.26202 61.48717 37084 ft 496 kts 139°
2026-05-01 12:50 46.22239 61.54683 37084 ft 495 kts 139°
2026-05-01 12:51 46.17451 61.61875 37084 ft 495 kts 139°
2026-05-01 12:52 46.10295 61.72568 37089 ft 494 kts 139°
2026-05-01 12:52 46.03113 61.83244 37082 ft 494 kts 139°
2026-05-01 12:53 45.95942 61.93871 37081 ft 493 kts 139°
2026-05-01 12:54 45.91167 62.00927 37083 ft 492 kts 139°
2026-05-01 12:54 45.83831 62.11070 37085 ft 484 kts 148°
2026-05-01 12:55 45.78178 62.16171 37075 ft 475 kts 159°
2026-05-01 12:55 45.75189 62.18161 37076 ft 474 kts 160°
2026-05-01 12:56 45.69162 62.22048 37073 ft 473 kts 160°
2026-05-01 12:56 45.63210 62.25913 37073 ft 473 kts 160°
2026-05-01 12:57 45.57222 62.29838 37071 ft 473 kts 160°
2026-05-01 12:57 45.48266 62.35711 37077 ft 473 kts 160°
2026-05-01 12:58 45.42273 62.39627 37076 ft 473 kts 160°
2026-05-01 12:59 45.33283 62.45483 37064 ft 473 kts 160°
2026-05-01 12:59 45.24330 62.51295 37062 ft 473 kts 160°
2026-05-01 13:00 45.15339 62.57111 37065 ft 472 kts 160°
2026-05-01 13:01 45.06399 62.62868 37062 ft 471 kts 160°
2026-05-01 13:02 44.97438 62.68624 37061 ft 470 kts 160°
2026-05-01 13:07 44.32285 63.09889 37076 ft 466 kts 160°
2026-05-01 13:08 44.26382 63.13579 37077 ft 467 kts 160°
2026-05-01 13:08 44.20447 63.17280 37055 ft 467 kts 160°
2026-05-01 13:09 44.14534 63.20968 37069 ft 468 kts 160°
2026-05-01 13:09 44.08596 63.24669 37070 ft 468 kts 160°
2026-05-01 13:10 44.02638 63.28375 37071 ft 468 kts 160°
2026-05-01 13:10 43.96676 63.32075 37071 ft 469 kts 160°
2026-05-01 13:11 43.90746 63.35742 37069 ft 469 kts 160°
2026-05-01 13:11 43.84777 63.39399 37070 ft 469 kts 160°
2026-05-01 13:12 43.78804 63.43049 37073 ft 469 kts 160°
2026-05-01 13:12 43.72830 63.46698 37071 ft 469 kts 160°
2026-05-01 13:13 43.66887 63.50319 37072 ft 469 kts 160°
2026-05-01 13:13 43.60914 63.53944 37075 ft 468 kts 160°
2026-05-01 13:14 43.54931 63.57563 37076 ft 468 kts 160°
2026-05-01 13:14 43.48955 63.61173 37078 ft 468 kts 160°
2026-05-01 13:15 43.43021 63.64761 37076 ft 468 kts 160°
2026-05-01 13:15 43.37039 63.68376 37068 ft 468 kts 160°
2026-05-01 13:16 43.31107 63.71953 37072 ft 467 kts 160°
2026-05-01 13:16 43.25141 63.75541 37077 ft 467 kts 160°
2026-05-01 13:17 43.13242 63.82674 37076 ft 467 kts 160°
2026-05-01 13:18 43.04319 63.88003 37077 ft 467 kts 160°
2026-05-01 13:18 42.98351 63.91558 37076 ft 468 kts 160°
2026-05-01 13:19 42.92380 63.95108 37075 ft 468 kts 160°
2026-05-01 13:20 42.83436 64.00411 37076 ft 468 kts 160°
2026-05-01 13:20 42.77444 64.03954 37077 ft 468 kts 160°
2026-05-01 13:21 42.68459 64.09254 37077 ft 469 kts 160°
2026-05-01 13:21 42.62493 64.12764 37076 ft 469 kts 160°
2026-05-01 13:22 42.56505 64.16341 37066 ft 470 kts 159°
2026-05-01 13:22 42.50632 64.20165 37077 ft 470 kts 158°
2026-05-01 13:23 42.44732 64.24067 37073 ft 471 kts 158°
2026-05-01 13:23 42.38873 64.27895 37068 ft 470 kts 158°
2026-05-01 13:24 42.32951 64.31729 37072 ft 470 kts 158°
2026-05-01 13:25 42.24107 64.37427 37074 ft 470 kts 158°
2026-05-01 13:25 42.18177 64.41239 37076 ft 470 kts 158°
2026-05-01 13:26 42.12283 64.45022 37076 ft 471 kts 158°
2026-05-01 13:26 42.06356 64.48817 37076 ft 471 kts 158°
2026-05-01 13:27 42.00432 64.52604 37080 ft 471 kts 158°
2026-05-01 13:27 41.91527 64.58281 37077 ft 472 kts 158°
2026-05-01 13:28 41.82671 64.63909 37088 ft 472 kts 158°
2026-05-01 13:29 41.70815 64.71416 37094 ft 472 kts 158°
2026-05-01 13:31 41.53004 64.82637 37097 ft 473 kts 158°
2026-05-01 13:32 41.38140 64.91951 37099 ft 472 kts 158°
2026-05-01 13:33 41.23271 65.01220 37095 ft 472 kts 159°
2026-05-01 13:34 41.11379 65.08585 37100 ft 473 kts 159°
2026-05-01 13:35 41.02409 65.14109 37099 ft 473 kts 159°
2026-05-01 13:36 40.93481 65.19595 37104 ft 473 kts 159°
2026-05-01 13:36 40.84502 65.25097 37105 ft 473 kts 159°
2026-05-01 13:37 40.79517 65.28144 37106 ft 474 kts 159°
2026-05-01 13:37 40.72549 65.32395 37110 ft 474 kts 159°
2026-05-01 13:38 40.63580 65.37852 37118 ft 475 kts 159°
2026-05-01 13:39 40.58574 65.40891 37107 ft 476 kts 159°
2026-05-01 13:39 40.52539 65.44548 37116 ft 476 kts 159°
2026-05-01 13:40 40.46552 65.48170 37113 ft 476 kts 159°
2026-05-01 13:40 40.40515 65.51814 37110 ft 476 kts 159°
2026-05-01 13:41 40.34519 65.55427 37115 ft 476 kts 159°
2026-05-01 13:41 40.28478 65.59051 37110 ft 477 kts 159°
2026-05-01 13:42 40.22470 65.62645 37106 ft 477 kts 160°
2026-05-01 13:42 40.16410 65.66266 37108 ft 478 kts 160°
2026-05-01 13:43 40.10363 65.69873 37105 ft 478 kts 160°
2026-05-01 13:43 40.04334 65.73463 37113 ft 478 kts 160°
2026-05-01 13:44 39.98266 65.77068 37104 ft 479 kts 160°
2026-05-01 13:44 39.92179 65.80678 37101 ft 479 kts 160°
2026-05-01 13:45 39.86097 65.84278 37107 ft 480 kts 160°
2026-05-01 13:45 39.80037 65.87858 37101 ft 481 kts 160°
2026-05-01 13:46 39.73921 65.91464 37106 ft 481 kts 160°
2026-05-01 13:46 39.67808 65.95063 37103 ft 482 kts 160°
2026-05-01 13:47 39.61704 65.98648 37094 ft 483 kts 160°
2026-05-01 13:47 39.55570 66.02248 37091 ft 484 kts 160°
2026-05-01 13:48 39.49465 66.05829 37094 ft 484 kts 160°
2026-05-01 13:48 39.43307 66.09435 37096 ft 485 kts 160°
2026-05-01 13:49 39.37123 66.13049 37087 ft 487 kts 160°
2026-05-01 13:49 39.30982 66.16631 37086 ft 487 kts 160°
2026-05-01 13:50 39.24780 66.20241 37090 ft 488 kts 160°
2026-05-01 13:50 39.18619 66.23821 37091 ft 489 kts 161°
2026-05-01 13:51 39.12393 66.27431 37082 ft 490 kts 161°
2026-05-01 13:51 39.06159 66.31039 37087 ft 490 kts 161°
2026-05-01 13:52 38.99956 66.34622 37086 ft 491 kts 161°
2026-05-01 13:52 38.93711 66.38222 37087 ft 492 kts 161°
2026-05-01 13:53 38.87455 66.41822 37089 ft 492 kts 161°
2026-05-01 13:53 38.78087 66.47201 37093 ft 493 kts 161°
2026-05-01 13:54 38.71813 66.50786 37094 ft 493 kts 161°
2026-05-01 13:54 38.65572 66.54310 37104 ft 494 kts 162°
2026-05-01 13:55 38.59262 66.57861 37093 ft 494 kts 162°
2026-05-01 13:55 38.52958 66.61406 37107 ft 495 kts 162°
2026-05-01 13:56 38.46691 66.64928 37101 ft 495 kts 162°
2026-05-01 13:56 38.40376 66.68471 37100 ft 495 kts 162°
2026-05-01 13:57 38.34064 66.72005 37098 ft 495 kts 162°
2026-05-01 13:57 38.27738 66.75539 37089 ft 496 kts 162°
2026-05-01 13:58 38.21460 66.79040 37087 ft 495 kts 162°
2026-05-01 13:58 38.15130 66.82564 37085 ft 496 kts 162°
2026-05-01 13:59 38.08794 66.86084 37070 ft 497 kts 162°
2026-05-01 13:59 38.02493 66.89578 37048 ft 497 kts 162°
2026-05-01 14:00 37.96126 66.93101 37034 ft 498 kts 162°
2026-05-01 14:00 37.89797 66.96598 37019 ft 499 kts 162°
2026-05-01 14:01 37.83423 67.00112 37012 ft 499 kts 162°
2026-05-01 14:01 37.77032 67.03630 37002 ft 500 kts 162°
2026-05-01 14:02 37.70674 67.07123 36992 ft 500 kts 163°
2026-05-01 14:02 37.64282 67.10628 36995 ft 501 kts 163°
2026-05-01 14:03 37.57875 67.14135 36983 ft 501 kts 163°
2026-05-01 14:03 37.51510 67.17611 36981 ft 501 kts 163°
2026-05-01 14:04 37.45091 67.21111 36984 ft 502 kts 163°
2026-05-01 14:04 37.39755 67.24015 36990 ft 502 kts 163°
2026-05-01 14:05 37.32280 67.28077 36991 ft 503 kts 163°
2026-05-01 14:05 37.25833 67.31574 36989 ft 504 kts 163°
2026-05-01 14:06 37.19406 67.35186 36993 ft 509 kts 159°
2026-05-01 14:06 37.13223 67.39473 36991 ft 512 kts 157°
2026-05-01 14:07 37.07018 67.43866 37004 ft 512 kts 157°
2026-05-01 14:08 36.97660 67.50388 37019 ft 513 kts 158°
2026-05-01 14:08 36.91440 67.54688 37022 ft 514 kts 158°
2026-05-01 14:09 36.85153 67.59029 37031 ft 514 kts 158°
2026-05-01 14:09 36.78875 67.63359 37031 ft 515 kts 158°
2026-05-01 14:10 36.72622 67.67664 37038 ft 516 kts 158°
2026-05-01 14:10 36.66329 67.71995 37042 ft 516 kts 158°
2026-05-01 14:11 36.60059 67.76317 37043 ft 518 kts 158°
2026-05-01 14:11 36.50602 67.82819 37047 ft 517 kts 158°
2026-05-01 14:12 36.44290 67.87151 37055 ft 517 kts 158°
2026-05-01 14:12 36.37976 67.91472 37060 ft 518 kts 158°
2026-05-01 14:13 36.32720 67.95063 37061 ft 519 kts 158°
2026-05-01 14:13 36.25345 68.00093 37083 ft 519 kts 158°
2026-05-01 14:14 36.19049 68.04380 37087 ft 519 kts 158°
2026-05-01 14:14 36.12715 68.08688 37103 ft 519 kts 158°
2026-05-01 14:15 36.06357 68.12996 37103 ft 520 kts 158°
2026-05-01 14:15 36.00000 68.17296 37116 ft 521 kts 158°
2026-05-01 14:16 35.93660 68.21580 37110 ft 522 kts 158°
2026-05-01 14:16 35.87260 68.25897 37109 ft 523 kts 158°
2026-05-01 14:17 35.80901 68.30179 37112 ft 523 kts 159°
2026-05-01 14:17 35.74509 68.34475 37117 ft 523 kts 159°
2026-05-01 14:18 35.68104 68.38773 37110 ft 524 kts 159°
2026-05-01 14:18 35.62792 68.42330 37110 ft 524 kts 159°
2026-05-01 14:19 35.55294 68.47330 37119 ft 523 kts 159°
2026-05-01 14:19 35.48915 68.51546 37115 ft 523 kts 159°
2026-05-01 14:20 35.39273 68.57909 37120 ft 523 kts 159°
2026-05-01 14:21 35.32885 68.62122 37035 ft 523 kts 159°
2026-05-01 14:21 35.26485 68.66328 37112 ft 521 kts 160°
2026-05-01 14:22 35.16842 68.72670 37063 ft 531 kts 160°
2026-05-01 14:22 35.10285 68.76956 37051 ft 535 kts 160°
2026-05-01 14:23 35.03720 68.81249 36985 ft 535 kts 160°
2026-05-01 14:23 34.97166 68.85532 36955 ft 533 kts 160°
2026-05-01 14:24 34.90624 68.89797 36927 ft 532 kts 160°
2026-05-01 14:24 34.84134 68.94018 36919 ft 531 kts 160°
2026-05-01 14:25 34.77613 68.98250 36871 ft 529 kts 160°
2026-05-01 14:25 34.71131 69.02450 36870 ft 527 kts 160°
2026-05-01 14:26 34.61445 69.08714 36861 ft 527 kts 160°
2026-05-01 14:27 34.55065 69.13095 36845 ft 538 kts 151°
2026-05-01 14:27 34.52200 69.16085 36854 ft 550 kts 141°
2026-05-01 14:27 34.49696 69.19651 36822 ft 560 kts 130°
2026-05-01 14:28 34.44175 69.32315 36837 ft 570 kts 120°
2026-05-01 14:28 34.41257 69.39506 36829 ft 570 kts 120°
2026-05-01 14:29 34.37640 69.48099 36836 ft 570 kts 121°
2026-05-01 14:30 34.30338 69.65069 36841 ft 569 kts 121°
2026-05-01 14:31 34.24853 69.77809 36847 ft 567 kts 121°
2026-05-01 14:31 34.21228 69.86212 36853 ft 567 kts 121°
2026-05-01 14:32 34.17564 69.94679 36848 ft 567 kts 121°
2026-05-01 14:32 34.13906 70.03084 36859 ft 565 kts 121°
2026-05-01 14:33 34.10259 70.11427 36737 ft 553 kts 121°
2026-05-01 14:33 34.08485 70.15488 36647 ft 540 kts 121°
2026-05-01 14:33 34.06748 70.19457 36554 ft 530 kts 122°
2026-05-01 14:34 34.03377 70.27144 36394 ft 511 kts 121°
2026-05-01 14:34 34.00092 70.34604 36257 ft 496 kts 122°
2026-05-01 14:35 33.96907 70.41839 36134 ft 480 kts 122°
2026-05-01 14:35 33.95341 70.45364 36010 ft 475 kts 124°
2026-05-01 14:35 33.93581 70.48679 35868 ft 464 kts 132°
2026-05-01 14:35 33.91617 70.51714 35702 ft 456 kts 137°
2026-05-01 14:36 33.89493 70.54463 35387 ft 451 kts 144°
2026-05-01 14:36 33.87211 70.57067 34962 ft 453 kts 145°
2026-05-01 14:36 33.84887 70.59663 34569 ft 456 kts 145°
2026-05-01 14:36 33.82559 70.62261 34228 ft 457 kts 145°
2026-05-01 14:37 33.80225 70.64878 33909 ft 458 kts 144°
2026-05-01 14:37 33.77900 70.67500 33567 ft 458 kts 144°
2026-05-01 14:37 33.75611 70.70091 33325 ft 455 kts 144°
2026-05-01 14:37 33.73317 70.72696 33028 ft 453 kts 144°
2026-05-01 14:38 33.71019 70.75303 32703 ft 451 kts 143°
2026-05-01 14:38 33.68736 70.77887 32384 ft 450 kts 143°
2026-05-01 14:38 33.66458 70.80465 32096 ft 448 kts 143°
2026-05-01 14:38 33.64213 70.83003 31770 ft 446 kts 142°
2026-05-01 14:39 33.61959 70.85550 31519 ft 443 kts 142°
2026-05-01 14:39 33.59713 70.88087 31242 ft 441 kts 142°
2026-05-01 14:39 33.57479 70.90605 30938 ft 439 kts 142°
2026-05-01 14:39 33.55255 70.93113 30620 ft 437 kts 141°
2026-05-01 14:40 33.53039 70.95608 30329 ft 436 kts 141°
2026-05-01 14:40 33.50931 70.98150 29982 ft 436 kts 130°
2026-05-01 14:40 33.49462 71.01345 29490 ft 441 kts 109°
2026-05-01 14:40 33.48820 71.04944 29064 ft 440 kts 91°
2026-05-01 14:41 33.48934 71.08587 28576 ft 437 kts 83°
2026-05-01 14:41 33.49208 71.12223 28065 ft 439 kts 82°
2026-05-01 14:41 33.49502 71.15871 27651 ft 439 kts 83°
2026-05-01 14:41 33.49778 71.19461 27232 ft 438 kts 83°
2026-05-01 14:42 33.50035 71.23099 26866 ft 437 kts 83°
2026-05-01 14:42 33.50273 71.26730 26471 ft 436 kts 84°
2026-05-01 14:42 33.50501 71.30358 26042 ft 436 kts 84°
2026-05-01 14:42 33.50723 71.33945 25624 ft 435 kts 84°
2026-05-01 14:43 33.50945 71.37569 25176 ft 435 kts 84°
2026-05-01 14:43 33.51169 71.41194 24758 ft 435 kts 84°
2026-05-01 14:43 33.51392 71.44818 24343 ft 434 kts 84°
2026-05-01 14:43 33.51612 71.48421 23923 ft 434 kts 84°
2026-05-01 14:44 33.51827 71.51987 23502 ft 433 kts 84°
2026-05-01 14:44 33.52258 71.59201 22463 ft 433 kts 84°
2026-05-01 14:44 33.52468 71.62766 22338 ft 423 kts 84°
2026-05-01 14:45 33.52672 71.66238 22268 ft 412 kts 84°
2026-05-01 14:45 33.53062 71.72884 22134 ft 392 kts 84°
2026-05-01 14:45 33.53249 71.76097 22073 ft 383 kts 84°
2026-05-01 14:46 33.53433 71.79251 22013 ft 374 kts 84°
2026-05-01 14:46 33.53783 71.85326 21899 ft 356 kts 85°
2026-05-01 14:46 33.53598 71.88233 21789 ft 346 kts 107°
2026-05-01 14:47 33.52570 71.90773 21721 ft 335 kts 130°
2026-05-01 14:47 33.50929 71.92653 21652 ft 321 kts 151°
2026-05-01 14:47 33.48964 71.93735 21467 ft 310 kts 171°
2026-05-01 14:48 33.44856 71.93497 20919 ft 292 kts 208°
2026-05-01 14:48 33.43124 71.92308 20644 ft 283 kts 225°
2026-05-01 14:48 33.40780 71.88687 20186 ft 271 kts 249°
2026-05-01 14:49 33.40158 71.84390 19651 ft 264 kts 269°
2026-05-01 14:49 33.39942 71.79994 19211 ft 263 kts 268°
2026-05-01 14:50 33.39777 71.77098 18948 ft 261 kts 268°
2026-05-01 14:50 33.40880 71.71553 17241 ft 295 kts 315°
2026-05-01 14:51 33.42666 71.70112 16067 ft 328 kts 333°
2026-05-01 14:51 33.47550 71.69695 14038 ft 384 kts 13°
2026-05-01 14:52 33.51918 71.73347 13401 ft 389 kts 53°
2026-05-01 14:52 33.53004 71.76282 13323 ft 384 kts 76°
2026-05-01 14:52 33.53092 71.82492 13195 ft 366 kts 94°
2026-05-01 14:53 33.52874 71.85506 13134 ft 358 kts 94°
2026-05-01 14:53 33.52658 71.88439 13066 ft 349 kts 94°
2026-05-01 14:53 33.52464 71.91314 12971 ft 342 kts 93°
2026-05-01 14:53 33.52294 71.94135 12806 ft 338 kts 92°
2026-05-01 14:54 33.52139 71.96953 12443 ft 340 kts 92°
2026-05-01 14:54 33.51994 71.99782 12065 ft 339 kts 92°
2026-05-01 14:54 33.51854 72.02603 11668 ft 337 kts 92°
2026-05-01 14:54 33.51717 72.05400 11273 ft 334 kts 92°
2026-05-01 14:55 33.51585 72.08137 10909 ft 332 kts 92°
2026-05-01 14:55 33.51452 72.10888 10526 ft 329 kts 92°
2026-05-01 14:55 33.51319 72.13625 10168 ft 327 kts 92°
2026-05-01 14:55 33.51187 72.16348 9797 ft 325 kts 92°
2026-05-01 14:56 33.51056 72.19036 9416 ft 323 kts 92°
2026-05-01 14:56 33.50926 72.21689 9022 ft 321 kts 92°
2026-05-01 14:56 33.50792 72.24387 8620 ft 319 kts 93°
2026-05-01 14:56 33.50663 72.26995 8230 ft 317 kts 93°
2026-05-01 14:57 33.50534 72.29594 7829 ft 305 kts 93°
2026-05-01 14:57 33.50290 72.34447 7047 ft 281 kts 93°
2026-05-01 14:57 33.50173 72.36771 6660 ft 272 kts 94°
2026-05-01 14:58 33.50062 72.38971 6276 ft 264 kts 94°
2026-05-01 14:58 33.49952 72.41143 5898 ft 259 kts 94°
2026-05-01 14:58 33.49841 72.43312 5521 ft 263 kts 94°
2026-05-01 14:58 33.49729 72.45510 5162 ft 265 kts 94°
2026-05-01 14:59 33.49618 72.47681 5066 ft 253 kts 94°
2026-05-01 14:59 33.49513 72.49732 5004 ft 240 kts 94°
2026-05-01 14:59 33.49410 72.51704 5001 ft 234 kts 94°
2026-05-01 14:59 33.49310 72.53630 5010 ft 229 kts 94°
2026-05-01 15:00 33.49910 72.57263 4996 ft 231 kts 47°
2026-05-01 15:00 33.51258 72.58289 5008 ft 232 kts 20°
2026-05-01 15:00 33.52799 72.58888 5003 ft 232 kts 15°
2026-05-01 15:01 33.54292 72.59408 4980 ft 221 kts 15°
2026-05-01 15:01 33.55718 72.59911 5005 ft 207 kts 15°
2026-05-01 15:01 33.57003 72.60594 4980 ft 201 kts 40°
2026-05-01 15:01 33.57761 72.61995 5002 ft 203 kts 70°
2026-05-01 15:02 33.57820 72.63675 4927 ft 205 kts 103°
2026-05-01 15:02 33.57710 72.64213 4868 ft 205 kts 105°
2026-05-01 15:02 33.57237 72.66992 4223 ft 198 kts 101°
2026-05-01 15:02 33.57001 72.68542 3840 ft 178 kts 101°
2026-05-01 15:03 33.56791 72.69893 3696 ft 154 kts 101°
2026-05-01 15:03 33.56595 72.71142 3698 ft 154 kts 101°
2026-05-01 15:03 33.56396 72.72418 3541 ft 157 kts 101°
2026-05-01 15:03 33.56196 72.73699 3193 ft 155 kts 101°
2026-05-01 15:04 33.56001 72.74949 3008 ft 154 kts 101°
2026-05-01 15:04 33.55803 72.76223 2833 ft 154 kts 101°
2026-05-01 15:04 33.55600 72.77476 2511 ft 151 kts 100°
2026-05-01 15:04 33.55421 72.78680 2207 ft 144 kts 101°
2026-05-01 15:05 33.55232 72.79850 1898 ft 141 kts 101°
2026-05-01 15:05 33.55057 72.81000 1769 ft 140 kts 99°
2026-05-01 15:05 33.54904 72.81963 1764 ft 111 kts 101°
2026-05-01 15:05 33.54782 72.82729 1765 ft 76 kts 100°
2026-05-01 15:06 33.54707 72.83203 1770 ft 40 kts 101°
2026-05-01 15:06 33.54692 72.83397 1771 ft 14 kts 60°
2026-05-01 15:06 33.54764 72.83428 1774 ft 10 kts
2026-05-01 15:06 33.54834 72.83440 1771 ft 10 kts
2026-05-01 15:07 33.54900 72.83455 1773 ft 9 kts 12°
2026-05-01 15:07 33.54959 72.83470 1774 ft 8 kts 12°
2026-05-01 15:07 33.55009 72.83482 1775 ft 7 kts 10°
2026-05-01 15:07 33.55061 72.83493 1776 ft 12 kts 10°
2026-05-01 15:08 33.55159 72.83515 1776 ft 14 kts 11°
2026-05-01 15:08 33.55251 72.83535 1775 ft 11 kts 10°
2026-05-01 15:08 33.55320 72.83536 1776 ft 9 kts 338°
2026-05-01 15:08 33.55348 72.83473 1776 ft 9 kts 274°
2026-05-01 15:09 33.55349 72.83403 1774 ft 8 kts 275°
2026-05-01 15:09 33.55363 72.83348 1776 ft 5 kts 316°
2026-05-01 15:09 33.55392 72.83344 1777 ft 3 kts 11°
2026-05-01 15:09 33.55404 72.83348 1777 ft 1 kts 11°
2026-05-01 15:10 33.55409 72.83349 1777 ft 2 kts 11°
2026-05-01 15:10 33.55435 72.83355 1777 ft 0 kts 10°